User: anonymous   Login
Location: Unspecified
(0.0000°N, 0.0000°E)
Time: 09:27:46
(UTC+00:00)
Language:

Explorer 31 - Orbit

View from above orbital plane
View from above orbital plane
View from above satellite
View from above satellite

Ground track
Ground track

The orbit data is extracted from the following two-line orbital elements,

1  1806U 65098B   17295.83130704 -.00000388 +00000-0 -13675-3 0  9999
2  1806 079.8093 061.2553 1438691 190.1069 166.7923 12.05543123267761
Epoch (UTC): 22 October 2017 19:57:04
Eccentricity: 0.1438691
inclination: 79.8093°
perigee height: 500 km
apogee height: 2812 km
right ascension of ascending node: 61.2553°
argument of perigee: 190.1069°
revolutions per day: 12.05543123
mean anomaly at epoch: 166.7923°
orbit number at epoch: 26776

The dashed part of the orbit path shows where the satellite is in the earth's shadow,  

DLR